Tracking 30743 objects as of 20-Jun-2025
HD Live streaming from Space Station
objects crossing your sky now

STARLINK-30303

Track STARLINK-30303 now!
10-day predictions
STARLINK-30303 is classified as:


NORAD ID: 57677
Int'l Code: 2023-124Q
Perigee: 481.6 km
Apogee: 483.1 km
Inclination: 53.2 °
Period: 94.1 minutes
Semi major axis: 6853 km
RCS: Unknown
Launch date: August 22, 2023
Source: United States (US)
Launch site: AIR FORCE WESTERN TEST RANGE (AFWTR)
Your satellite tracking list
Your tracking list is empty




NASA's NSSDC Master Catalog

Two Line Element Set (TLE):
1 57677U 23124Q   25171.19577240  .00001114  00000-0  49741-4 0  9991
2 57677  53.1608 345.7428 0001054  96.2704 263.8417 15.30195036103242
Source of the keplerian elements: AFSPC